Location: Newark
(47.0000°N, 7.6833°E)
Time: 18:21:49
(UTC+00:00)

ISS - Visible Passes

Search period start: 23 August 2019 00:00
Search period end: 02 September 2019 00:00
Orbit: 410 x 420 km, 51.6° (Epoch: 23 August)

Date Brightness Start Highest point End Pass type
(mag) Time Alt. Az. Time Alt. Az. Time Alt. Az.
28 Aug -1.5 03:36:23 10° S 03:38:45 18° SE 03:41:10 10° E visible
29 Aug -1.1 02:49:06 10° SSE 02:50:10 11° SE 02:51:18 10° ESE visible
30 Aug -2.9 03:35:16 16° SSW 03:37:33 41° SE 03:40:44 10° ENE visible
31 Aug -2.3 02:48:28 26° SSE 02:48:50 26° SE 02:51:41 10° E visible
01 Sep -1.0 02:01:38 13° ESE 02:01:38 13° ESE 02:02:22 10° E visible
01 Sep -3.8 03:34:30 23° WSW 03:36:28 89° SSE 03:39:50 10° ENE visible
